Weather History for Maniitsoq, Greenland

Change the Weather History Date:

Saturday, September 14, 2013

  Actual Average Record
Temperature  
Mean Temperature 36 °F -  
Max Temperature 39 °F - - ()
Min Temperature 32 °F - - ()
Degree Days  
Heating Degree Days 30    
Moisture  
Dew Point 30 °F    
Average Humidity 81    
Maximum Humidity 100    
Minimum Humidity 65    
Precipitation  
Precipitation 0.00 in - - ()
Sea Level Pressure  
Sea Level Pressure 29.93 in    
Wind  
Wind Speed 5 mph ()    
Max Wind Speed 14 mph    
Max Gust Speed -    
Visibility 6.0 miles    
Events Snow    
T = Trace of Precipitation, MM = Missing Value Source: Averaged Metar Reports

Daily Weather History Graph

Daily Weather History Graph

Search for Another Location

Airport:

Trip Planner

Search our weather history database for the weather conditions in past years. The results will help you decide how hot, cold, wet, or windy it might be!

Date:

Astronomy

Sep. 14, 2013 Rise Set
Actual Time 6:50 AM WGST 8:02 PM WGST
Civil Twilight 5:58 AM WGST 8:53 PM WGST
Nautical Twilight 4:51 AM WGST 9:59 PM WGST
Astronomical Twilight 3:24 AM WGST 11:23 PM WGST
Moon 6:11 PM WGST (9/14) No Moon Set
Length of Visible Light 14h 55m
Length of Day
13h 11m
Waxing Gibbous, 71% of the Moon is Illuminated
Sep 14
Waxing Gibbous
Sep 19
Full
Sep 27
Last Quarter
Oct 4
New
Oct 11
First Quarter

Hourly Weather History & Observations

Time (WGST) Temp. Windchill Dew Point Humidity Pressure Visibility Wind Dir Wind Speed Gust Speed Precip Events Conditions
12:20 AM 32.0 °F 27.5 °F 32.0 °F 100% 29.77 in 0.4 mi ENE 4.6 mph - N/A Snow Snow
12:50 AM 32.0 °F 26.4 °F 32.0 °F 100% 29.77 in 1.6 mi ESE 5.8 mph - N/A Snow Light Snow
1:20 AM 33.8 °F 27.7 °F 32.0 °F 93% 29.77 in 6.2 mi East 6.9 mph - N/A Snow Light Snow Grains
1:50 AM 33.8 °F 28.6 °F 32.0 °F 93% 29.77 in 6.2 mi East 5.8 mph - N/A Snow Light Snow
2:20 AM 33.8 °F 27.7 °F 32.0 °F 93% 29.77 in 6.2 mi ESE 6.9 mph - N/A Snow Light Snow
2:50 AM 33.8 °F 28.6 °F 32.0 °F 93% 29.77 in 6.2 mi South 5.8 mph - N/A   Mostly Cloudy
3:20 AM 33.8 °F 28.6 °F 32.0 °F 93% 29.77 in 6.2 mi South 5.8 mph - N/A   Mostly Cloudy
3:50 AM 33.8 °F 28.6 °F 32.0 °F 93% 29.77 in 6.2 mi South 5.8 mph - N/A   Overcast
4:20 AM 33.8 °F 28.6 °F 32.0 °F 93% 29.77 in 6.2 mi South 5.8 mph - N/A   Overcast
4:50 AM 33.8 °F 29.6 °F 30.2 °F 87% 29.80 in 6.2 mi SSW 4.6 mph - N/A   Overcast
5:20 AM 33.8 °F - 30.2 °F 87% 29.80 in 6.2 mi SW 2.3 mph - N/A   Overcast
5:50 AM 33.8 °F - 28.4 °F 81% 29.80 in 6.2 mi Variable 1.2 mph - N/A   Mostly Cloudy
6:20 AM 33.8 °F - 28.4 °F 81% 29.80 in 6.2 mi ENE 2.3 mph - N/A   Overcast
6:50 AM 33.8 °F - 28.4 °F 81% 29.80 in 6.2 mi East 2.3 mph - N/A   Mostly Cloudy
7:20 AM 33.8 °F - 28.4 °F 81% 29.83 in 6.2 mi NE 1.2 mph - N/A   Mostly Cloudy
7:50 AM 33.8 °F - 28.4 °F 81% 29.83 in 6.2 mi NE 2.3 mph - N/A   Scattered Clouds
8:20 AM 33.8 °F 28.6 °F 28.4 °F 81% 29.83 in 6.2 mi NE 5.8 mph - N/A   Mostly Cloudy
8:50 AM 33.8 °F 28.6 °F 28.4 °F 81% 29.86 in 6.2 mi ENE 5.8 mph - N/A   Partly Cloudy
9:20 AM 33.8 °F 27.7 °F 30.2 °F 87% 29.86 in 6.2 mi NE 6.9 mph - N/A   Scattered Clouds
9:50 AM 35.6 °F 32.8 °F 30.2 °F 81% 29.86 in 6.2 mi NNE 3.5 mph - N/A   Partly Cloudy
10:20 AM 35.6 °F - 28.4 °F 75% 29.86 in 6.2 mi NNE 2.3 mph - N/A   Unknown
10:50 AM 35.6 °F - 30.2 °F 81% 29.89 in 6.2 mi NW 2.3 mph - N/A   Unknown
11:20 AM 37.4 °F 34.9 °F 30.2 °F 75% 29.89 in 6.2 mi West 3.5 mph - N/A   Unknown
11:50 AM 35.6 °F 29.9 °F 30.2 °F 81% 29.92 in 6.2 mi West 6.9 mph - N/A   Partly Cloudy
12:20 PM 37.4 °F 32.8 °F 30.2 °F 75% 29.92 in 6.2 mi WNW 5.8 mph - N/A   Partly Cloudy
12:50 PM 37.4 °F 32.8 °F 32.0 °F 81% 29.92 in 6.2 mi West 5.8 mph - N/A   Partly Cloudy
1:20 PM 37.4 °F 28.9 °F 32.0 °F 81% 29.95 in 6.2 mi WNW 13.8 mph - N/A   Scattered Clouds
1:50 PM 37.4 °F 30.8 °F 30.2 °F 75% 29.95 in 6.2 mi WNW 9.2 mph - N/A Snow Light Snow Showers
2:20 PM 37.4 °F 31.4 °F 30.2 °F 75% 29.98 in 6.2 mi NW 8.1 mph - N/A   Mostly Cloudy
2:50 PM 37.4 °F 30.3 °F 28.4 °F 70% 29.98 in 6.2 mi NW 10.4 mph - N/A   Mostly Cloudy
3:20 PM 39.2 °F 32.0 °F 28.4 °F 65% 30.01 in 6.2 mi WNW 11.5 mph - N/A   Mostly Cloudy
3:50 PM 39.2 °F 32.5 °F 28.4 °F 65% 30.01 in 6.2 mi West 10.4 mph - N/A   Partly Cloudy
4:20 PM 39.2 °F 33.6 °F 28.4 °F 65% 30.01 in 6.2 mi West 8.1 mph - N/A   Unknown
4:50 PM 39.2 °F 33.6 °F 28.4 °F 65% 30.04 in 6.2 mi West 8.1 mph - N/A   Unknown
5:20 PM 37.4 °F 31.4 °F 28.4 °F 70% 30.04 in 6.2 mi West 8.1 mph - N/A   Partly Cloudy
5:50 PM 37.4 °F 32.8 °F 28.4 °F 70% 30.06 in 6.2 mi West 5.8 mph - N/A   Partly Cloudy
6:20 PM 37.4 °F 31.4 °F 30.2 °F 75% 30.06 in 6.2 mi WSW 8.1 mph - N/A   Overcast
6:50 PM 37.4 °F 32.1 °F 30.2 °F 75% 30.09 in 6.2 mi SW 6.9 mph - N/A   Scattered Clouds
7:20 PM 37.4 °F 31.4 °F 30.2 °F 75% 30.09 in 6.2 mi SW 8.1 mph - N/A   Mostly Cloudy
7:50 PM 35.6 °F 29.9 °F 30.2 °F 81% 30.09 in 6.2 mi WSW 6.9 mph - N/A   Partly Cloudy
8:20 PM 35.6 °F 31.7 °F 30.2 °F 81% 30.09 in 6.2 mi SW 4.6 mph - N/A   Unknown
8:50 PM 35.6 °F 32.8 °F 30.2 °F 81% 30.12 in 6.2 mi SSW 3.5 mph - N/A   Scattered Clouds
9:20 PM 35.6 °F 30.7 °F 30.2 °F 81% 30.12 in 6.2 mi South 5.8 mph - N/A   Partly Cloudy
9:50 PM 35.6 °F 30.7 °F 30.2 °F 81% 30.12 in 6.2 mi SSE 5.8 mph - N/A   Mostly Cloudy
10:20 PM 35.6 °F 29.2 °F 30.2 °F 81% 30.12 in 6.2 mi South 8.1 mph - N/A   Mostly Cloudy
10:50 PM 35.6 °F 29.2 °F 30.2 °F 81% 30.12 in 6.2 mi SSE 8.1 mph - N/A   Mostly Cloudy
11:20 PM 35.6 °F 29.2 °F 30.2 °F 81% 30.12 in 6.2 mi SSE 8.1 mph - N/A   Mostly Cloudy
11:50 PM 35.6 °F 28.0 °F 30.2 °F 81% 30.15 in 6.2 mi SE 10.4 mph - N/A   Mostly Cloudy